Flag for China Weather past 2 weeks in Hohhot, Inner Mongolia, China

Now
82 °F

Passing clouds.


Feels Like: 82 °F
Forecast: 56 / 85 °F
Wind: 6 mph from Southwest

Location: Hohhot Airport

Current Time: Aug 20, 2014 at 1:32:24 PM

Latest Report: Aug 20, 2014 at 1:00 PM


Visibility: N/A

Pressure: 29.98 "Hg

Humidity: 40%

Dew point: 55 °F

Location of HohhotLocation

Historic Weather in Hohhot — Graph

°F

Hohhot temperature yesterday

Maximum temperature yesterday: 84 °F (at 2:00 PM)
Minimum temperature yesterday: 55 °F (at 4:00 AM)
Average temperature yesterday: 70 °F

Past Weeks' High & Low Weather Summary

 TemperatureHumidityPressure
High84 °F (Aug 19, 2:00 PM)100% (Aug 10, 2:00 AM)30.09 "Hg (Aug 10, 2:00 AM)
Low52 °F (Aug 10, 4:00 AM)24% (Aug 13, 4:00 PM)29.77 "Hg (Aug 9, 3:00 PM)
Average68 °F63%29.93 "Hg
* Reported Aug 5 12:00 Noon — Aug 20 12:00 Noon, Hohhot, Weather by CustomWeather, © 2014

Note: Actual official high and low records may vary slightly from our data, if they occured in-between our weather recording intervals... More about our weather records

Advertising

Hohhot weather history for previous 24 hours

 ConditionsComfort  
Time TempWeatherWind HumidityBarometerVisibility
12:00 PM
Aug 20
81 °FPassing clouds.6 mph42%30.01 "HgN/A
11:00 AM79 °FSunny.1 mph45%30.01 "Hg10 mi
10:00 AM75 °FSunny.3 mph50%30.04 "Hg10 mi
9:00 AM73 °FPassing clouds.3 mph50%30.04 "HgN/A
8:00 AM70 °FSunny.3 mph57%30.04 "Hg10 mi
7:00 AM63 °FSunny.1 mph77%30.01 "Hg10 mi
6:00 AM63 °FSunny.3 mph68%30.01 "Hg10 mi
5:00 AM61 °FClear.3 mph77%30.01 "Hg10 mi
4:00 AM61 °FClear.3 mph77%30.01 "Hg10 mi
3:00 AM63 °FClear.3 mph73%30.01 "Hg10 mi
2:00 AM63 °FClear.3 mph73%30.01 "Hg10 mi
1:00 AM64 °FClear.6 mph64%30.01 "Hg10 mi
12:00 AM66 °FClear.3 mph64%30.01 "Hg10 mi
11:00 PM
Aug 19
66 °FClear.3 mph64%30.01 "Hg10 mi
10:00 PM70 °FPassing clouds.6 mph57%30.01 "HgN/A
9:00 PM70 °FPassing clouds.3 mph57%30.01 "HgN/A
8:00 PM75 °FPassing clouds.3 mph44%29.98 "HgN/A
7:00 PM81 °FPassing clouds.8 mph37%29.98 "HgN/A
6:00 PM84 °FPassing clouds.10 mph37%29.98 "HgN/A
5:00 PM84 °FPassing clouds.8 mph40%29.98 "HgN/A
4:00 PM84 °FScattered clouds.10 mph37%29.98 "HgN/A
3:00 PM82 °FScattered clouds.8 mph35%30.01 "HgN/A
2:00 PM84 °FScattered clouds.10 mph35%30.04 "HgN/A
1:00 PM82 °FPassing clouds.10 mph42%30.04 "HgN/A
Weather by CustomWeather, © 2014

See weather overviewHow to use our weather pages